Cedar City, UT

7:27 AM MDT on August 24, 2016 (GMT -0600)
Cedar City Regional

Weather History for KCDC - September, 2013

Change the Weather History Date:

Thursday, September 26, 2013

  Actual Average Record
Temperature  
Mean Temperature 46 °F 58 °F  
Max Temperature 61 °F 75 °F 89 °F (2010)
Min Temperature 30 °F 40 °F 27 °F (1970)
Degree Days  
Heating Degree Days 19 8  
Month to date heating degree days 104 100  
Since 1 July heating degree days 107 109  
Cooling Degree Days 0 0  
Month to date cooling degree days 35 36  
Year to date cooling degree days 667 585  
Moisture  
Dew Point 28 °F    
Average Humidity 53    
Maximum Humidity 85    
Minimum Humidity 21    
Precipitation  
Precipitation 0.00 in 0.02 in 0.37 in (1997)
Month to date precipitation 1.79 0.56  
Year to date precipitation 13.04 8.10  
Sea Level Pressure  
Sea Level Pressure 29.69 in    
Wind  
Wind Speed 7 mph (SW)    
Max Wind Speed 29 mph    
Max Gust Speed 40 mph    
Visibility 10 miles    
Events Rain    
T = Trace of Precipitation, MM = Missing Value Source: NWS Daily Summary

Daily Weather History Graph

Daily Weather History Graph

Search for Another Location

Airport or City:

Trip Planner

Search our weather history database for the weather conditions in past years. The results will help you decide how hot, cold, wet, or windy it might be!

Date:

Astronomy

Sep. 26, 2013 Rise Set
Actual Time 7:23 AM MDT 7:22 PM MDT
Civil Twilight 6:57 AM MDT 7:48 PM MDT
Nautical Twilight 6:27 AM MDT 8:19 PM MDT
Astronomical Twilight 5:56 AM MDT 8:49 PM MDT
Moon No Moon Rise 2:13 PM MDT (9/26)
Length of Visible Light 12h 51m
Length of Day
11h 58m
Waning Gibbous, 54% of the Moon is Illuminated
Sep 26
Waning Gibbous
Sep 26
Last Quarter
Oct 4
New
Oct 11
First Quarter
Oct 18
Full

Hourly Weather History & Observations

Time (MDT) Temp. Windchill Dew Point Humidity Pressure Visibility Wind Dir Wind Speed Gust Speed Precip Events Conditions
12:53 AM 43.0 °F 40.3 °F 30.0 °F 60% 29.60 in 10.0 mi East 4.6 mph - N/A   Partly Cloudy
1:53 AM 37.9 °F - 30.0 °F 73% 29.61 in 10.0 mi Calm Calm - N/A   Clear
2:53 AM 36.0 °F - 28.9 °F 76% 29.62 in 10.0 mi Calm Calm - N/A   Clear
3:53 AM 32.0 °F - 28.0 °F 85% 29.61 in 10.0 mi Calm Calm - N/A   Clear
4:53 AM 35.1 °F - 28.9 °F 78% 29.61 in 10.0 mi Calm Calm - N/A   Clear
5:53 AM 32.0 °F - 28.0 °F 85% 29.61 in 10.0 mi Calm Calm - N/A   Clear
6:53 AM 30.9 °F - 27.0 °F 85% 29.63 in 10.0 mi Calm Calm - N/A   Clear
7:53 AM 32.0 °F - 27.0 °F 82% 29.65 in 10.0 mi Calm Calm - N/A   Clear
8:53 AM 41.0 °F - 30.9 °F 67% 29.62 in 10.0 mi Calm Calm - N/A   Clear
9:53 AM 45.0 °F 42.6 °F 30.9 °F 58% 29.67 in 10.0 mi Variable 4.6 mph - N/A   Clear
10:53 AM 48.0 °F - 30.9 °F 52% 29.67 in 10.0 mi Calm Calm - N/A   Clear
11:53 AM 50.0 °F - 30.9 °F 48% 29.67 in 10.0 mi Calm Calm - N/A   Partly Cloudy
12:53 PM 55.9 °F - 30.0 °F 37% 29.62 in 10.0 mi South 12.7 mph 23.0 mph N/A   Clear
1:53 PM 60.1 °F - 23.0 °F 24% 29.60 in 10.0 mi SSW 25.3 mph 35.7 mph N/A   Clear
2:53 PM 61.0 °F - 19.9 °F 21% 29.60 in 10.0 mi SW 19.6 mph 34.5 mph N/A   Clear
3:53 PM 57.9 °F - 19.9 °F 23% 29.65 in 10.0 mi SSW 19.6 mph 29.9 mph N/A   Clear
4:53 PM 55.9 °F - 15.1 °F 20% 29.66 in 10.0 mi SSW 27.6 mph 34.5 mph N/A   Clear
5:13 PM 51.8 °F - 30.2 °F 44% 29.76 in 10.0 mi WNW 25.3 mph 34.5 mph N/A   Scattered Clouds
5:53 PM 48.9 °F - 33.1 °F 54% 29.75 in 10.0 mi WNW 17.3 mph 29.9 mph N/A   Partly Cloudy
6:53 PM 46.0 °F 41.4 °F 32.0 °F 58% 29.81 in 10.0 mi WNW 9.2 mph - N/A   Overcast
7:53 PM 44.1 °F 42.5 °F 32.0 °F 63% 29.84 in 10.0 mi WSW 3.5 mph - N/A   Overcast
8:53 PM 45.0 °F 41.8 °F 28.9 °F 53% 29.81 in 10.0 mi South 5.8 mph - 0.00 in   Overcast
9:53 PM 44.1 °F - 27.0 °F 51% 29.81 in 10.0 mi Calm Calm - 0.00 in Rain Light Rain
10:53 PM 42.1 °F 38.4 °F 28.0 °F 58% 29.82 in 10.0 mi ESE 5.8 mph - 0.00 in   Mostly Cloudy
11:53 PM 37.0 °F - 28.0 °F 70% 29.84 in 10.0 mi Calm Calm - N/A   Partly Cloudy